This is the latest recevied weather packets stored in our database for station/object KK7ISX. If no packets are shown the sender has not sent any weather packets the latest 10 day(s).
| Time | Temp. | Humidity | Pressure | Rain* | Wind** | Luminosity | Snow |
|---|---|---|---|---|---|---|---|
| 1777994378 | 17.22° C | 52% | 1010.6 hPa | 0 mm | - | 297 W/m² | - |
| 1777994073 | 16.67° C | 52% | 1010.6 hPa | 0 mm | - | 129 W/m² | - |
| 1777993771 | 16.67° C | 52% | 1010.5 hPa | 0 mm | - | 267 W/m² | - |
| 1777993468 | 16.67° C | 51% | 1010.6 hPa | 0 mm | - | 252 W/m² | - |
| 1777993167 | 16.11° C | 54% | 1010.5 hPa | 0 mm | - | 236 W/m² | - |
| 1777992866 | 15.56° C | 55% | 1010.5 hPa | 0 mm | - | 224 W/m² | - |
| 1777992564 | 15.56° C | 56% | 1010.5 hPa | 0 mm | - | 210 W/m² | - |
| 1777992261 | 15° C | 57% | 1010.5 hPa | 0 mm | - | 197 W/m² | - |
| 1777991959 | 15° C | 59% | 1010.4 hPa | 0 mm | - | 61 W/m² | - |
| 1777991656 | 14.44° C | 61% | 1010.4 hPa | 0 mm | - | 63 W/m² | - |
| 1777991352 | 13.33° C | 62% | 1010.4 hPa | 0 mm | - | 56 W/m² | - |
| 1777991050 | 12.78° C | 65% | 1010.4 hPa | 0 mm | - | 57 W/m² | - |
| 1777990747 | 12.22° C | 67% | 1010.2 hPa | 0 mm | - | 53 W/m² | - |
| 1777990445 | 11.67° C | 67% | 1010.2 hPa | 0 mm | - | 51 W/m² | - |
| 1777989838 | 11.11° C | 70% | 1009.9 hPa | 0 mm | - | 52 W/m² | - |
| 1777989535 | 11.11° C | 70% | 1009.8 hPa | 0 mm | - | 53 W/m² | - |
| 1777989231 | 11.11° C | 70% | 1009.8 hPa | 0 mm | - | 56 W/m² | - |
| 1777988927 | 10.56° C | 70% | 1009.7 hPa | 0 mm | - | 58 W/m² | - |
| 1777988624 | 10.56° C | 71% | 1009.5 hPa | 0 mm | - | 56 W/m² | - |
| 1777988320 | 10.56° C | 71% | 1009.5 hPa | 0 mm | - | 51 W/m² | - |
| 1777988018 | 10° C | 71% | 1009.4 hPa | 0 mm | - | 45 W/m² | - |
| 1777987713 | 10° C | 73% | 1009.3 hPa | 0 mm | - | 37 W/m² | - |
| 1777987410 | 10° C | 73% | 1009.3 hPa | 0 mm | - | 30 W/m² | - |
| 1777987107 | 10° C | 72% | 1009 hPa | 0 mm | - | 25 W/m² | - |
| 1777986805 | 10° C | 71% | 1008.9 hPa | 0 mm | - | 22 W/m² | - |
* Rain latest hour (hover to see other rain measurements)
** Current wind speed in m/s (hover to see current wind gust speed)